[[{"header":{"parameterUnit":"m.s-1","parameterCategory":1,"la1":30.2992,"la2":30.254,"lo1":-89.0895,"lo2":-89.0443,"dy":0.0025,"dx":0.0025,"nx":19,"ny":19,"refTime":"2026-03-10T09:00:00:Z","depth":0,"parameterNumber":2,"parameterNumberName":"U-component_of_WINDS"},"data":[0,0,0,0.9079,0.9081,0.9196,0.9196,0.9338,0.9339,0,0,0,0,0,0,0,0,0,0,0,0.904,0.904,0.9079,0.9082,0.9196,0.9196,0.9338,0.9339,0,0,0,0,0,0,0,0,0,0,0,0.9039,0.904,0.9041,0.9082,0.9195,0.9196,0.9338,0.9254,0,0,0,0,0,0,0,0,0,0,0.9144,0.9101,0.904,0.9041,0.9083,0.9195,0.9196,0.925,0.9259,0.9284,0,0.9301,0,0.9322,0.9348,0.9349,0,0,0,0.9087,0.9093,0.9129,0.9041,0.9084,0.9195,0.9146,0.9255,0.9265,0.9296,0.9303,0.9309,0.9325,0.9349,0.935,0.9468,0.9468,0,0,0.908,0.9058,0.9122,0.9135,0.9114,0.9142,0.9149,0.9261,0.9269,0.9304,0.9312,0.9327,0.935,0.9351,0.9468,0.9468,0,0,0,0.9059,0.9053,0.9086,0.9129,0.915,0.9145,0.9153,0.9264,0.9277,0.9314,0.9329,0.9351,0.9352,0.9467,0.9468,0.946,0,0,0,0.9055,0.9041,0.9083,0.9071,0.9147,0.9208,0.9154,0.9269,0.9282,0.9328,0.9351,0.9354,0.9467,0.9468,0.946,0.9461,0,0,0,0.9034,0.9038,0.9053,0.9069,0.9117,0.9207,0.9226,0.9272,0.9291,0.9349,0.9354,0.9467,0.9468,0.9459,0.946,0.9485,0,0,0,0.9006,0.9046,0.9052,0.9103,0.9116,0.92,0.9225,0.929,0.9338,0.9351,0.9467,0.9468,0.9459,0.946,0.9485,0.9502,0.9507,0,0,0.9044,0.905,0.9081,0.909,0.9167,0.9184,0.9262,0.9329,0.9357,0.943,0.9433,0.946,0.946,0.9485,0.9543,0.9546,0,0,0,0.9086,0.9108,0.9133,0.9177,0.9227,0.9271,0.9328,0.9353,0.9416,0.9388,0.9477,0.9478,0.9493,0.9503,0.9506,0.9521,0.9471,0.9471,0.9471,0.9108,0.9138,0.9193,0.9237,0.928,0.9338,0.9376,0.942,0.9441,0.9461,0.9483,0.9514,0.9524,0.9527,0.9542,0.9495,0.9495,0.9495,0.9495,0.9166,0.9203,0.9227,0.9289,0.9322,0.9376,0.9434,0.9447,0.9503,0.95,0.9515,0.9509,0.953,0.9545,0.9495,0.9495,0.9495,0.9495,0.9495,0.9184,0.9207,0.9235,0.9301,0.9349,0.9394,0.9446,0.9476,0.9504,0.952,0.9547,0.9547,0.9551,0.953,0.953,0.953,0.953,0.9531,0.9531,0.9191,0.9223,0.9262,0.9318,0.935,0.9396,0.9455,0.9489,0.9533,0.9551,0.9552,0.9571,0.9525,0.9513,0.9532,0.9532,0.9532,0.9532,0.9532,0.9239,0.9233,0.9292,0.9324,0.9393,0.9439,0.9476,0.9541,0.9574,0.9599,0.9615,0.9576,0.9585,0.9583,0.9573,0.9607,0.9607,0.9607,0.9607,0.9254,0.9261,0.9328,0.9377,0.9429,0.9468,0.9537,0.9584,0.9632,0.9655,0.9654,0.9644,0.964,0.9652,0.9648,0.9639,0.9689,0.9689,0.9689,0.9285,0.9298,0.935,0.9394,0.9451,0.9499,0.9565,0.9623,0.9677,0.9693,0.9673,0.967,0.9653,0.9646,0.9662,0.9655,0.964,0,0]},{"header":{"parameterUnit":"m.s-1","parameterCategory":1,"la1":30.2992,"la2":30.254,"lo1":-89.0895,"lo2":-89.0443,"dy":0.0025,"dx":0.0025,"nx":19,"ny":19,"refTime":"2026-03-10T09:00:00:Z","depth":0,"parameterNumber":3,"parameterNumberName":"V-component_of_WINDS"},"data":[0,0,0,3.4872,3.4876,3.5082,3.5083,3.5327,3.5329,0,0,0,0,0,0,0,0,0,0,0,3.48,3.4801,3.4871,3.4876,3.5082,3.5083,3.5327,3.5329,0,0,0,0,0,0,0,0,0,0,0,3.48,3.4801,3.4803,3.4877,3.5082,3.5083,3.5326,3.5177,0,0,0,0,0,0,0,0,0,0,3.498,3.4904,3.4801,3.4803,3.4878,3.5082,3.5084,3.517,3.5186,3.5225,0,3.5259,0,3.5298,3.5344,3.5345,0,0,0,3.4883,3.4891,3.4956,3.4803,3.488,3.5082,3.4991,3.5179,3.5198,3.5247,3.5263,3.5272,3.5302,3.5346,3.5347,3.5554,3.5555,0,0,3.4872,3.4831,3.4943,3.4967,3.4937,3.4985,3.4998,3.5191,3.5205,3.5264,3.5278,3.5306,3.5347,3.5349,3.5554,3.5554,0,0,0,3.4835,3.4823,3.4884,3.4957,3.4996,3.499,3.5006,3.5196,3.522,3.5281,3.5309,3.5348,3.5351,3.5553,3.5554,3.5548,0,0,0,3.4828,3.4801,3.4879,3.4855,3.4992,3.5099,3.5006,3.5206,3.5229,3.5308,3.5348,3.5353,3.5552,3.5553,3.5546,3.5551,0,0,0,3.479,3.4797,3.4823,3.4853,3.494,3.5097,3.5132,3.5212,3.5246,3.5345,3.5354,3.5552,3.5553,3.5545,3.555,3.5596,0,0,0,3.4737,3.4812,3.4822,3.4917,3.4938,3.5092,3.5131,3.5246,3.533,3.535,3.5552,3.5554,3.5545,3.5549,3.5594,3.5628,3.5638,0,0,3.4809,3.4819,3.4878,3.4893,3.5035,3.5063,3.5204,3.5318,3.5363,3.5487,3.5493,3.5547,3.5549,3.5595,3.5706,3.5714,0,0,0,3.4887,3.4929,3.4975,3.5055,3.5146,3.5225,3.5322,3.5365,3.5473,3.5419,3.5576,3.5579,3.5608,3.5626,3.5633,3.566,3.556,3.556,3.556,3.4928,3.4985,3.5087,3.5169,3.5246,3.5348,3.5415,3.549,3.5521,3.5558,3.5595,3.5656,3.5676,3.5681,3.5709,3.5617,3.5617,3.5617,3.5617,3.5039,3.5108,3.5153,3.5268,3.5327,3.5423,3.5524,3.5544,3.5642,3.5632,3.566,3.5645,3.5688,3.5716,3.5617,3.5617,3.5617,3.5617,3.5617,3.5074,3.5117,3.517,3.5293,3.5381,3.5461,3.5554,3.5604,3.565,3.5678,3.5724,3.5725,3.5732,3.5696,3.5697,3.5697,3.5697,3.5697,3.5697,3.5089,3.5149,3.5223,3.5328,3.5387,3.5471,3.5575,3.5634,3.5712,3.574,3.5741,3.577,3.5681,3.5659,3.5701,3.57,3.57,3.57,3.5699,3.5183,3.517,3.5284,3.5344,3.5472,3.5557,3.562,3.5736,3.5792,3.5836,3.5861,3.5787,3.58,3.5795,3.5777,3.5847,3.5847,3.5847,3.5847,3.5213,3.5225,3.5355,3.5447,3.5543,3.5612,3.5739,3.582,3.5902,3.594,3.5937,3.5917,3.5909,3.5927,3.592,3.5903,3.6005,3.6005,3.6005,3.5274,3.5299,3.5398,3.5481,3.5585,3.5674,3.5795,3.5898,3.5988,3.6012,3.5972,3.5965,3.5933,3.5919,3.5942,3.5929,3.5901,0,0]}]]